Regional Weather Roundup
Issued by NWS Nashville, TN

Home | Current Version | Previous Version | Text Only | Print | Product List | Glossary On
Versions: 1 2 3 4 5 6 7 8 9 10 11 12 13 14 15 16 17 18 19 20 21 22 23 24 25 26 27
000
ASUS44 KOHX 250110
RWROHX
MIDDLE TENNESSEE HOURLY WEATHER ROUNDUP
NATIONAL WEATHER SERVICE NASHVILLE TN
800 PM CDT TUE MAY 24 2016

NOTE: "FAIR" INDICATES FEW OR NO CLOUDS BELOW 12,000 FEET WITH
NO SIGNIFICANT WEATHER AND/OR OBSTRUCTIONS TO VISIBILITY.

* THESE REPORTS ARE NOT UNDER NWS QUALITY CONTROL AND MAY NOT
  REPORT WEATHER SUCH AS PRECIPITATION AND FOG.


TNZ005>011-023>034-057-059-062>066-078-080-250200
...NORTHERN MIDDLE TENNESSEE...

CITY           SKY/WX    TMP DP  RH WIND       PRES   REMARKS
CLARKSVILLE    CLEAR     76  58  53 S3        30.05F
CROSSVILLE     PTCLDY    68  52  56 CALM      30.16S
DICKSON        CLEAR     72  64  78 CALM      30.08F
LEBANON        CLEAR     78  55  44 CALM      30.08
NASHVILLE      PTCLDY    79  54  41 CALM      30.09S
SMYRNA         CLEAR     77  56  48 SW3       30.09S
SPARTA         MOCLDY    73  64  73 CALM      30.10S
$$
TNZ056-058-060-061-075>077-079-093>097-250200
...SOUTHERN MIDDLE TENNESSEE...

CITY           SKY/WX    TMP DP  RH WIND       PRES   REMARKS
COLUMBIA       CLEAR     73  73 100 SE3       30.08S
FAYETTEVILLE   CLEAR     77  54  44 SW3       30.11S
LEWISBURG      CLEAR     73  61  66 CALM      30.09S
MCMINNVILLE    CLEAR     73  57  56 CALM      30.12R
SHELBYVILLE    CLEAR     75  59  57 CALM      30.11S
TULLAHOMA      CLEAR     73  57  56 CALM      30.13S
WINCHESTER     PTCLDY    75  55  50 S3        30.12S
$$


...KEY TO REMARKS...
VSB - VISIBILITY IN MILES
WCI - WIND CHILL INDEX
HX  - HEAT INDEX





USA.gov is the U.S. government's official web portal to all federal, state and local government web resources and services.